Weather History for Madisonville, KY

Change the Weather History Date:

Sunday, April 20, 2014

  Actual Average (KOWB) Record (KOWB)
Temperature  
Mean Temperature 62 °F -  
Max Temperature 79 °F 72 °F 89 °F (1971)
Min Temperature 45 °F 49 °F 26 °F (1983)
Degree Days  
Heating Degree Days 3    
Growing Degree Days 12 (Base 50)    
Moisture  
Dew Point 44 °F    
Average Humidity 54    
Maximum Humidity 93    
Minimum Humidity 21    
Precipitation  
Precipitation 0.00 in - - ()
Sea Level Pressure  
Sea Level Pressure 30.17 in    
Wind  
Wind Speed 1 mph (NE)    
Max Wind Speed 7 mph    
Max Gust Speed -    
Visibility 10 miles    
Events      
Averages and records for this station are not official NWS values.
T = Trace of Precipitation, MM = Missing Value Source: NWS Daily Summary

Daily Weather History Graph

Daily Weather History Graph

Search for Another Location

Airport:

Trip Planner

Search our weather history database for the weather conditions in past years. The results will help you decide how hot, cold, wet, or windy it might be!

Date:

Astronomy

Apr. 20, 2014 Rise Set
Actual Time 6:08 AM CDT 7:29 PM CDT
Civil Twilight 5:40 AM CDT 7:56 PM CDT
Nautical Twilight 5:08 AM CDT 8:29 PM CDT
Astronomical Twilight 4:34 AM CDT 9:03 PM CDT
Moon 12:06 AM CDT (4/20) 10:30 AM CDT (4/20)
Length of Visible Light 14h 15m
Length of Day
13h 21m
Waning Gibbous, 68% of the Moon is Illuminated
Apr 20
Waning Gibbous
Apr 22
Last Quarter
Apr 29
New
May 6
First Quarter
May 14
Full

Hourly Weather History & Observations

Time (CDT) Temp. Dew Point Humidity Pressure Visibility Wind Dir Wind Speed Gust Speed Precip Events Conditions
12:15 AM 53.4 °F 46.4 °F 77% 30.19 in 10.0 mi Calm Calm - N/A   Clear
12:35 AM 55.4 °F 44.6 °F 67% 30.19 in 10.0 mi Calm Calm - N/A   Clear
12:55 AM 52.7 °F 46.4 °F 79% 30.19 in 10.0 mi Calm Calm - N/A   Clear
1:15 AM 52.0 °F 47.3 °F 84% 30.19 in 10.0 mi North 3.5 mph - N/A   Clear
1:35 AM 51.6 °F 45.9 °F 81% 30.19 in 10.0 mi Calm Calm - N/A   Clear
1:55 AM 51.8 °F 45.5 °F 79% 30.19 in 10.0 mi Calm Calm - N/A   Clear
2:15 AM 50.0 °F 45.7 °F 85% 30.20 in 10.0 mi North 4.6 mph - N/A   Clear
2:35 AM 49.5 °F 46.0 °F 88% 30.20 in 10.0 mi NNE 3.5 mph - N/A   Clear
2:55 AM 50.4 °F 44.4 °F 80% 30.20 in 10.0 mi Calm Calm - N/A   Clear
3:15 AM 51.3 °F 43.3 °F 74% 30.20 in 10.0 mi NNE 3.5 mph - N/A   Clear
3:35 AM 50.2 °F 43.3 °F 77% 30.20 in 10.0 mi Calm Calm - N/A   Clear
3:55 AM 48.9 °F 43.7 °F 82% 30.20 in 10.0 mi Calm Calm - N/A   Clear
4:15 AM 50.2 °F 43.9 °F 79% 30.20 in 10.0 mi Calm Calm - N/A   Clear
4:35 AM 48.7 °F 43.7 °F 83% 30.20 in 10.0 mi Calm Calm - N/A   Clear
4:55 AM 47.5 °F 44.1 °F 88% 30.21 in 10.0 mi Calm Calm - N/A   Clear
5:15 AM 47.3 °F 44.6 °F 90% 30.21 in 10.0 mi Calm Calm - N/A   Clear
5:35 AM 47.8 °F 43.9 °F 86% 30.21 in 10.0 mi Calm Calm - N/A   Clear
5:55 AM 47.8 °F 43.3 °F 84% 30.21 in 10.0 mi Calm Calm - N/A   Clear
6:15 AM 46.8 °F 43.0 °F 87% 30.22 in 10.0 mi Calm Calm - N/A   Clear
6:35 AM 45.9 °F 43.9 °F 93% 30.22 in 10.0 mi Calm Calm - N/A   Clear
6:55 AM 46.8 °F 44.2 °F 91% 30.23 in 10.0 mi Calm Calm - N/A   Clear
7:15 AM 49.6 °F 46.4 °F 89% 30.24 in 10.0 mi Calm Calm - N/A   Clear
7:35 AM 52.9 °F 47.3 °F 81% 30.24 in 10.0 mi Calm Calm - N/A   Clear
7:55 AM 55.4 °F 45.5 °F 69% 30.24 in 10.0 mi Calm Calm - N/A   Clear
8:15 AM 56.8 °F 46.4 °F 68% 30.25 in 10.0 mi Calm Calm - N/A   Clear
8:35 AM 59.4 °F 45.5 °F 60% 30.24 in 10.0 mi Calm Calm - N/A   Clear
8:55 AM 61.7 °F 44.2 °F 53% 30.24 in 10.0 mi Calm Calm - N/A   Clear
9:15 AM 63.7 °F 45.3 °F 51% 30.24 in 10.0 mi Calm Calm - N/A   Clear
9:35 AM 65.3 °F 45.3 °F 48% 30.24 in 10.0 mi Calm Calm - N/A   Clear
9:55 AM 66.9 °F 45.5 °F 46% 30.24 in 10.0 mi West 3.5 mph - N/A   Clear
10:15 AM 68.7 °F 45.9 °F 44% 30.24 in 10.0 mi Calm Calm - N/A   Clear
10:35 AM 70.5 °F 43.5 °F 38% 30.24 in 10.0 mi Calm Calm - N/A   Clear
10:55 AM 72.0 °F 42.8 °F 35% 30.23 in 10.0 mi Calm Calm - N/A   Clear
11:15 AM 73.4 °F 42.1 °F 32% 30.23 in 10.0 mi SW 3.5 mph - N/A   Clear
11:35 AM 74.1 °F 40.5 °F 30% 30.22 in 10.0 mi Calm Calm - N/A   Clear
11:55 AM 75.2 °F 40.5 °F 29% 30.22 in 10.0 mi Calm Calm - N/A   Clear
12:15 PM 75.6 °F 39.6 °F 27% 30.21 in 10.0 mi North 3.5 mph - N/A   Clear
12:35 PM 76.1 °F 38.3 °F 26% 30.20 in 10.0 mi NE 5.8 mph - N/A   Clear
12:55 PM 76.3 °F 39.0 °F 26% 30.20 in 10.0 mi NW 3.5 mph - N/A   Clear
1:15 PM 77.5 °F 40.5 °F 26% 30.19 in 10.0 mi NNE 5.8 mph - N/A   Clear
1:35 PM 77.4 °F 39.2 °F 25% 30.18 in 10.0 mi Calm Calm - N/A   Clear
1:55 PM 78.3 °F 39.2 °F 25% 30.18 in 10.0 mi North 3.5 mph - N/A   Clear
2:15 PM 78.8 °F 38.8 °F 24% 30.17 in 10.0 mi NNW 4.6 mph - N/A   Clear
2:35 PM 79.0 °F 39.4 °F 24% 30.16 in 10.0 mi East 3.5 mph - N/A   Clear
2:55 PM 78.8 °F 35.8 °F 21% 30.16 in 10.0 mi East 3.5 mph - N/A   Clear
3:15 PM 78.8 °F 36.0 °F 21% 30.15 in 10.0 mi East 3.5 mph - N/A   Clear
3:35 PM 77.9 °F 38.8 °F 25% 30.14 in 10.0 mi NE 3.5 mph - N/A   Clear
3:55 PM 79.2 °F 39.6 °F 24% 30.14 in 10.0 mi East 3.5 mph - N/A   Clear
4:15 PM 79.2 °F 40.1 °F 25% 30.13 in 10.0 mi East 3.5 mph - N/A   Clear
4:35 PM 79.5 °F 41.2 °F 25% 30.12 in 10.0 mi ENE 6.9 mph - N/A   Clear
4:55 PM 79.2 °F 39.7 °F 24% 30.12 in 10.0 mi ENE 4.6 mph - N/A   Clear
5:15 PM 79.3 °F 40.8 °F 25% 30.11 in 10.0 mi ENE 3.5 mph - N/A   Clear
5:35 PM 79.2 °F 39.7 °F 24% 30.11 in 10.0 mi ENE 3.5 mph - N/A   Clear
5:55 PM 77.9 °F 40.6 °F 26% 30.11 in 10.0 mi NNE 3.5 mph - N/A   Clear
6:15 PM 77.5 °F 43.5 °F 30% 30.10 in 10.0 mi ENE 3.5 mph - N/A   Clear
6:35 PM 77.7 °F 43.2 °F 29% 30.10 in 10.0 mi NE 3.5 mph - N/A   Clear
6:55 PM 75.9 °F 44.1 °F 32% 30.09 in 10.0 mi NE 3.5 mph - N/A   Clear
7:15 PM 74.3 °F 42.8 °F 32% 30.09 in 10.0 mi ENE 3.5 mph - N/A   Clear
7:35 PM 72.5 °F 43.2 °F 35% 30.09 in 10.0 mi NE 3.5 mph - N/A   Clear
7:55 PM 68.0 °F 49.5 °F 51% 30.10 in 10.0 mi NNE 4.6 mph - N/A   Clear
8:15 PM 68.9 °F 47.5 °F 46% 30.10 in 10.0 mi ENE 4.6 mph - N/A   Clear
8:35 PM 66.7 °F 46.9 °F 49% 30.10 in 10.0 mi Calm Calm - N/A   Clear
8:55 PM 65.8 °F 47.1 °F 51% 30.11 in 10.0 mi Calm Calm - N/A   Clear
9:15 PM 64.8 °F 47.1 °F 53% 30.12 in 10.0 mi Calm Calm - N/A   Clear
9:35 PM 64.6 °F 45.9 °F 51% 30.12 in 10.0 mi Calm Calm - N/A   Clear
9:55 PM 63.7 °F 46.2 °F 53% 30.12 in 10.0 mi Calm Calm - N/A   Clear
10:15 PM 60.8 °F 46.8 °F 60% 30.12 in 10.0 mi Calm Calm - N/A   Clear
10:35 PM 60.3 °F 46.8 °F 61% 30.12 in 10.0 mi Calm Calm - N/A   Clear
10:55 PM 59.5 °F 47.1 °F 63% 30.11 in 10.0 mi Calm Calm - N/A   Clear
11:15 PM 59.0 °F 47.7 °F 66% 30.10 in 10.0 mi SW 3.5 mph - N/A   Clear
11:35 PM 57.4 °F 48.6 °F 72% 30.10 in 10.0 mi Calm Calm - N/A   Clear
11:55 PM 57.4 °F 48.4 °F 72% 30.10 in 10.0 mi Calm Calm - N/A   Clear